Regional Weather Roundup
Issued by NWS Sterling, VA

Home | Current Version | Previous Version | Graphics & Text | Print | Product List | Glossary On
Versions: 1 2 3 4 5 6 7 8 9 10 11 12 13 14 15 16 17 18 19 20 21 22 23 24 25 26 27 28
000
ASUS41 KLWX 221511
RWRLWX

REGIONAL WEATHER ROUNDUP
NATIONAL WEATHER SERVICE BALTIMORE MD/WASHINGTON DC
1100 AM EDT SAT JUL 22 2017

Note: "FAIR" indicates few or no clouds below 12,000 feet
with no significant weather and/or obstructions to visibility.
 TC=TEMPERATURE CELSIUS

 * =Non NWS site. Station does not report precipitation (e.g. rain,
    snow, etc.), thunder, or fog.

DCZ001-MDZ009-015-VAZ040>042-051-053>054-221600-
WASHINGTON METRO

CITY           SKY/WX    TMP DP  RH WIND       PRES   REMARKS
WASHINGTON NAT CLOUDY    89  73  59 SE5       29.91S HX  97
DULLES         PTSUNNY   84  72  67 CALM      29.91F
ANDREWS AFB    MOSUNNY   89  69  52 CALM      29.90F HX  93
FT BELVOIR     SUNNY     90  72  54 CALM      29.90F HX  97
QUANTICO       PTSUNNY   89  74  60 NW5       29.92S HX  98
COLLEGE PARK*  MOSUNNY   87  70  56 CALM      29.89F HX  92
LEESBURG*      MOSUNNY   86  75  70 NW3       29.93F HX  95
MANASSAS*      SUNNY     88  74  63 SW5       29.92S HX  96
GAITHERSBURG*  PTSUNNY   86  73  65 W5        29.93F HX  93

$$

MDZ006>007-011-014-221600-
BALTIMORE METRO

CITY           SKY/WX    TMP DP  RH WIND       PRES   REMARKS
BWI AIRPORT    CLOUDY    89  71  55 CALM      29.89S HX  95
MD SCIENCE CTR   N/A     91  72  53 MISG      29.89S HX  98
MARTIN STATE   MOSUNNY   86  79  79 CALM      29.91R HX  99
ANNAPOLIS      CLOUDY    83  78  85 N6        29.89S HX  93
FORT MEADE*    CLOUDY    86  72  62 CALM      29.92F HX  92

$$

MDZ012-015-019>023-221600-
MARYLAND EASTERN SHORE

CITY           SKY/WX    TMP DP  RH WIND       PRES   REMARKS
OCEAN CITY     CLOUDY    84  77  79 S6        29.88F HX  94
SALISBURY      MOSUNNY   86  75  70 SW3       29.87F HX  95
CAMBRIDGE*     MOSUNNY   86  79  79 CALM      29.88S HX  99
EASTON*        PTSUNNY   88  77  70 NW3       29.92F HX 100

$$

MDZ017>025-221600-
SOUTHERN MARYLAND

CITY           SKY/WX    TMP DP  RH WIND       PRES   REMARKS
PATUXENT RIVER CLOUDY    87  77  72 N7        29.89S HX  99
ST INIGOES     SUNNY     87  78  74 W8        29.89S HX 100
LEONARDTOWN*   CLOUDY    86  73  66 W3        29.92R HX  93

$$

MDZ003>005-221600-
NORTH CENTRAL MARYLAND

CITY           SKY/WX    TMP DP  RH WIND       PRES   REMARKS
FREDERICK*     MOSUNNY   84  72  65 W7        29.94F
HAGERSTOWN APT PTSUNNY   82  72  71 VRB5      29.93F
WESTMINSTER*   MOSUNNY   84  72  65 CALM      29.93F

$$

MDZ501>502-221600-
WESTERN MARYLAND

CITY           SKY/WX    TMP DP  RH WIND       PRES   REMARKS
OAKLAND*       MOSUNNY   73  66  78 SW9       30.01F
CUMBERLAND*    MOSUNNY   82  72  69 SE6       29.96F

$$

VAZ025>031-221600-
SHENANDOAH VALLEY

CITY           SKY/WX    TMP DP  RH WIND       PRES   REMARKS
WINCHESTER*    CLOUDY    82  68  61 W7        29.94S
FRONT ROYAL*   CLOUDY    86  70  58 CALM      29.93F HX  90
LURAY*         CLOUDY    82  72  69 SW3       29.96F
NEW MARKET*    CLOUDY    82  69  65 SW3       29.95S
STAUNTON*      CLOUDY    85  69  58 SW10      30.00F
WAYNESBORO*    CLOUDY    83  71  66 SW9       30.01S

$$

WVZ021-048>050-054>055-221600-
EASTERN WEST VIRGINIA PANHANDLE

CITY           SKY/WX    TMP DP  RH WIND       PRES   REMARKS
MARTINSBURG    MOSUNNY   83  71  67 W8        29.92F
PETERSBURG*    CLOUDY    82  72  71 E3        29.95F

$$

VAZ036>039-050-221600-
CENTRAL FOOTHILLS

CITY           SKY/WX    TMP DP  RH WIND       PRES   REMARKS
CHARLOTTESVILL CLOUDY    87  70  56 CALM      29.95R HX  92
CULPEPER*      MOSUNNY   87  72  62 CALM      29.93F HX  93
ORANGE*        CLOUDY    86  72  62 SE3       29.93F HX  92
GORDONSVILLE*  CLOUDY    89  72  57 S6        29.94S HX  95
WARRENTON*     CLOUDY    88  68  51 W5        29.92F HX  91

$$

VAZ055>057-221600-
NORTH AND CENTRAL PIEDMONT

CITY           SKY/WX    TMP DP  RH WIND       PRES   REMARKS
FREDERICKSBRG* CLOUDY    88  73  61 CALM      29.91S HX  95
STAFFORD*      CLOUDY    86  71  60 NW6       29.96S HX  91

$$

NCZ024-NYZ072-PAZ021-071-VAZ022-071-221600-
OTHER REGIONAL OBSERVATIONS

CITY           SKY/WX    TMP DP  RH WIND       PRES   REMARKS
NEW YORK CITY  SUNNY     84  61  45 CALM      29.91S
PHILADELPHIA   PTSUNNY   89  67  47 E7        29.89S HX  92
PITTSBURGH     LGT RAIN  73  71  93 S8        29.90F FOG
ROANOKE        MOSUNNY   89  71  55 W6        30.01F HX  95
RICHMOND       PTSUNNY   92  71  50 VRB6      29.93S HX  98
RALEIGH        MOSUNNY   91  76  61 SW9       29.99F HX 103

$$

ANZ530>537-221600-
MARINE OBSERVATIONS

STATION/POSITION TIME  TEMP    WIND        PRES
                       AIR SEA DIR/SP/G
                 (UTC) (F)     (DEG/KT/KT) (MB)
THOMAS PT LIGHT  1500   83 84   40/  1/  2   N/A
BALT KEY BRIDGE  1448   84      50/  2/  3 1012.1R
COVE POINT       1448   83     350/  8/  9 1012.9R
LEWISETTA        1448   85 86  290/  6/  8 1012.3F
SOLOMONS ISLAND  1448   85 85  280/  5/  7   N/A
PINEY POINT      1448          320/ 11/ 12   N/A

$$





USA.gov is the U.S. government's official web portal to all federal, state and local government web resources and services.